OBJECT XH, 65729

Orbit data source: Space-Track

You're viewing an Uncataloged Satellite

Recently launched and/or uncataloged satellites may have evolving metadata. Metadata may include but not limited to: Owner, Maufacturer, Bus, Motor, and Mission.

OBJECT XH, 65729 is a satellite owned by Kyutech (JP) in LEO that was delivered to and deployed from the ISS. Unknown objects in Earth's orbit typically refer to objects detected orbiting the Earth but have not yet been identified or cataloged. These objects could be anything from previously untracked satellites, spent rocket stages, debris from satellite collisions, or even natural meteoroids temporarily captured by Earth's gravity.

Not visible in the next 10 days
Identifier
65729, 1998-067XH
Orbit
LEO
Country
Flag of JPJP / JPN
Related business
Manufacturer
Kyutech
Mission
Operational spacecraft
Bus & Motor
CUBESAT 2U, Unknown motor
Mass
2 kg wet, 2 kg dry
Launch date (UTC)
1998-11-20 (27 years ago)
Launch vehicle
FALCON 9
Launch site
Tyuratam Missile And Space Complex (TTMTR)
Object type
Unknown
Shape & HBR
Unknown shape, 0.1 m
Radar Cross Section
RCS unknown

Expand to show TLE details & history
Last TLE update: 1 day ago

TLE from 1 day ago
0 OBJECT XH
1 65729U 98067XH  26022.73635969  .00776938  28561-3  15622-2 0  9992
2 65729  51.6146 282.6796 0007550 170.3517 189.7639 15.99062538 19657
Epoch: 2026-01-22T17:40Z
TLE epoch observation values (Epoch: 2026-01-22T17:40:21.477Z)
Latitude
0.00002°
Longitude
-104.49512°
Altitude
282.724 km
Speed
7.736 km/s
True Right ascension
18h 50m 43s
True Declination
0° 00' 00"
Sunlit
Object was in daylight at epoch
Visualization orbit readout
Latitude
Unknown
Longitude
Unknown
Altitude
Unknown
Speed
Unknown
Apparent Right ascension
Unknown
Apparent Declination
Unknown
Sunlit
N/A
Visualization observer readout
Local Sidereal Time
21:08:16
Azimuth
Unknown
Elevation
Unknown
Doppler factor
Unknown
Orbital elements
Apogee altitude
282.566 km
Perigee altitude
272.516 km
Semi-major axis
6,655.678 km
Eccentricity
0.00076
Inclination
51.6146°
RAAN
282.6796°
Arg. of periapsis
170.3517°
True anomaly
189.74924°
Mean anomaly
189.7639°
Eccentric anomaly
189.75657°
Mean motion
3.99719 °/min
Orbital period
90.06 mins
BSTAR
0.0015622
Loading maneuver chart data...
Computing Atmospheric mass density...

Documentation

Showing up to 5 results
|